This is the latest recevied weather packets stored in our database for station/object KB3KBR-WX. If no packets are shown the sender has not sent any weather packets the latest 10 day(s).
| Time | Temp. | Humidity | Pressure | Rain* | Wind** | Luminosity | Snow |
|---|---|---|---|---|---|---|---|
| 1778102971 | 10° C | 60% | 1008.2 hPa | 0 mm | - | - | - |
| 1778102641 | 10.56° C | 61% | 1008.1 hPa | 0 mm | - | - | - |
| 1778102311 | 10.56° C | 62% | 1008.2 hPa | 0 mm | - | - | - |
| 1778101981 | 10.56° C | 61% | 1008.2 hPa | 0 mm | - | - | - |
| 1778101681 | 10.56° C | 60% | 1008 hPa | 0 mm | - | - | - |
| 1778101351 | 11.11° C | 61% | 1007.9 hPa | 0 mm | - | - | - |
| 1778100720 | 11.11° C | 65% | 1007.6 hPa | 0 mm | - | - | - |
| 1778100421 | 10.56° C | 64% | 1007.5 hPa | 0 mm | - | - | - |
| 1778100133 | 10.56° C | 64% | 1007.5 hPa | 0 mm | - | - | - |
| 1778100091 | 10.56° C | 64% | 1007.5 hPa | 0 mm | - | - | - |
| 1778099791 | 10.56° C | 67% | 1007.5 hPa | 0 mm | - | - | - |
| 1778099491 | 10.56° C | 68% | 1007.6 hPa | 0 mm | - | - | - |
| 1778099161 | 10.56° C | 69% | 1007.4 hPa | 0 mm | - | - | - |
| 1778098830 | 10.56° C | 70% | 1007.6 hPa | 0 mm | - | - | - |
| 1778098501 | 11.11° C | 71% | 1007.5 hPa | 0 mm | - | - | - |
| 1778098171 | 11.11° C | 72% | 1007.7 hPa | 0 mm | - | - | - |
| 1778097871 | 10.56° C | 73% | 1007.8 hPa | 0 mm | - | - | - |
| 1778097570 | 10.56° C | 74% | 1007.8 hPa | 0 mm | - | - | - |
| 1778097271 | 10.56° C | 72% | 1007.7 hPa | 0 mm | - | - | - |
| 1778096941 | 10.56° C | 72% | 1007.7 hPa | 0 mm | - | - | - |
| 1778096641 | 10.56° C | 73% | 1007.7 hPa | 0 mm | - | - | - |
| 1778096341 | 11.11° C | 75% | 1007.7 hPa | 0 mm | - | - | - |
| 1778096040 | 11.11° C | 75% | 1007.5 hPa | 0 mm | - | - | - |
| 1778095711 | 10.56° C | 76% | 1007.6 hPa | 0 mm | - | - | - |
| 1778095381 | 10.56° C | 76% | 1007.7 hPa | 0 mm | - | - | - |
* Rain latest hour (hover to see other rain measurements)
** Current wind speed in m/s (hover to see current wind gust speed)